Regional Weather Roundup
Issued by NWS

Home | Current Version | Previous Version | Text Only | Print | Product List | Glossary Off
Versions: 1 2 3 4 5 6 7 8 9 10 11 12 13 14 15 16 17 18 19 20 21 22 23 24 25 26 27 28 29 30 31 32 33 34 35 36 37 38 39 40 41 42 43 44 45 46 47 48 49 50

000
ASUS44 KMEG 280610
RWRTN
TENNESSEE HOURLY STATE WEATHER ROUNDUP
NATIONAL WEATHER SERVICE MEMPHIS TN
100 AM CDT THU MAY 28 2015

TNZ002-004-019-021-049-052-054-088>092-280700-
WEST TENNESSEE

CITY           SKY/WX    TMP DP  RH WIND       PRES   REMARKS
MEMPHIS INTL   CLOUDY    70  65  84 S8        30.15R
NWS MEMPHIS      N/A     68 N/A N/A MISG        N/A
JACKSON        PTCLDY    65  62  90 CALM      30.16R
DYERSBURG      MOCLDY    68  54  60 CALM      30.16S
PARIS          CLEAR     64  64 100 S3        30.16F
LEXINGTON      CLEAR     64  63  94 CALM      30.14S
$$

TNZ008-025-027-028-033-062-065-066-280700-
NORTH MIDDLE TENNESSEE

CITY           SKY/WX    TMP DP  RH WIND       PRES   REMARKS
NASHVILLE      CLOUDY    67  65  93 S3        30.16F
CLARKSVILLE    CLOUDY    66  65  96 CALM      30.16S FOG
SMYRNA         CLOUDY    67  66  96 CALM      30.17F
COOKEVILLE     CLEAR     68  63  83 S3        30.17F
CROSSVILLE     CLOUDY    67  62  84 SW5       30.22F
$$

TNZ061-075-076-078-094-096-097-280700-
SOUTH MIDDLE TENNESSEE

CITY           SKY/WX    TMP DP  RH WIND       PRES   REMARKS
FAYETTEVILLE   CLEAR    N/A N/A N/A MISG      30.14F
TULLAHOMA      PTCLDY    64  63  94 E6        30.15F
WINCHESTER     MOCLDY    64  63  94 E3        30.16F
MCMINNVILLE    CLEAR     64  64 100 CALM      30.17F
COLUMBIA       MOCLDY    66  66 100 CALM      30.14F
SHELBYVILLE    CLOUDY    66  66 100 CALM      30.15F
$$

TNZ017-018-042-046-047-280700-
NORTHEAST TENNESSEE

CITY           SKY/WX    TMP DP  RH WIND       PRES   REMARKS
TRI CITIES     CLOUDY    67  61  81 CALM      30.21S
ELIZABETHTON   CLEAR     63  59  88 CALM      30.22S
$$

TNZ012-013-036-069-073-074-280700-
CENTRAL EAST TENNESSEE

CITY           SKY/WX    TMP DP  RH WIND       PRES   REMARKS
KNOXVILLE      CLOUDY    71  62  73 S6        30.19F
OAK RIDGE      CLOUDY    71  67  87 CALM      30.20F
GATLINBURG       N/A     64  61  88 CALM      30.19F
MORRISTOWN     CLEAR     66  63  88 CALM      30.21S
$$

TNZ083-085-099-280700-
SOUTHEAST TENNESSEE

CITY           SKY/WX    TMP DP  RH WIND       PRES   REMARKS
CHATTANOOGA    CLOUDY    70  64  81 CALM      30.19F
$$

SKY/WX REPORTED AS FAIR MEANS FEW OR NO CLOUDS BELOW
12 THOUSAND FEET.



USA.gov is the U.S. government's official web portal to all federal, state and local government web resources and services.